Location: *
(43.0333°S, 179.9667°E)
Time: 02:50:15
(UTC+00:00)

Daily predictions for brighter satellites

Satellite Brightness Start Highest point End
(mag) Time Altitude Azimuth Time Altitude Azimuth Time Altitude Azimuth
Cosmos 1354 Rocket 4.0 05:03:35 10° SSW 05:08:57 81° ESE 05:14:13 10° NNE
BREEZE-M DEB (TANK) 3.4 05:09:27 10° W 05:12:55 30° SSW 05:14:55 10° SE
SL-8 R/B 3.8 05:10:34 10° WNW 05:15:29 78° SSW 05:20:23 10° ESE
IRIDIUM 104 4.5 05:10:19 10° S 05:15:33 56° E 05:20:42 10° NNE
Cosmos 1633 4.0 05:13:48 10° NE 05:16:20 18° E 05:18:54 10° SE
CZ-4B R/B 4.0 05:13:16 10° S 05:17:03 72° WSW 05:20:54 10° NNW
Cosmos 1980 3.8 05:12:27 10° N 05:18:03 63° ENE 05:23:41 10° SSE
Cosmos 1689 Rocket 4.1 05:18:46 10° ESE 05:19:11 10° ESE 05:19:35 10° ESE
Meteor 2-2 Rocket 4.3 05:14:54 10° S 05:20:53 79° E 05:26:40 10° NNE
ATLAS 3B R/B 3.0 05:13:22 10° NNW 05:20:55 88° NE 05:28:21 10° SE
Cosmos 405 Rocket 2.7 05:18:55 10° N 05:22:38 62° E 05:26:30 10° SSE
IRIDIUM 114 4.3 05:19:25 10° S 05:24:44 68° E 05:29:57 10° N
Cosmos 1356 3.3 05:22:16 10° N 05:25:42 79° E 05:29:11 10° SSE
CZ-4B R/B 3.1 05:23:54 10° SSE 05:28:20 64° E 05:32:29 10° N
Envisat 3.0 05:25:08 10° SSE 05:30:18 72° ENE 05:35:24 10° N
PSLV R/B 4.5 05:27:49 10° NE 05:31:39 37° ESE 05:35:29 10° S
SL-16 R/B 3.2 05:27:25 10° NNE 05:32:03 26° ENE 05:36:42 10° SE
Cosmos 1461 3.2 05:28:19 10° SSW 05:32:34 51° SE 05:36:58 10° NE
Cosmos 1606 3.1 05:29:11 10° S 05:32:50 40° ESE 05:36:26 10° NNE
Cosmos 1242 Rocket 3.8 05:30:16 10° SSE 05:33:14 22° ESE 05:36:10 10° NE
IRIDIUM 103 4.3 05:28:32 10° S 05:33:52 83° E 05:39:07 10° N
H-2A R/B 3.2 05:30:52 10° N 05:34:52 47° W 05:38:55 10° SSW
Meteor PRIRODA 3.6 05:31:09 10° SSE 05:34:57 74° ENE 05:38:41 10° N
COSMO-SKYMED 1 3.7 05:36:35 10° N 05:40:50 49° W 05:45:09 10° SSW
ERS-2 3.6 05:38:17 10° ENE 05:40:50 18° ESE 05:43:24 10° SSE
Cosmos 1939 Rocket 4.4 05:40:14 13° SE 05:42:40 19° E 05:45:41 10° NE
Cosmos 2221 2.7 05:38:21 10° S 05:42:42 78° W 05:47:00 10° N
ATLAS CENTAUR R/B 2.6 05:39:38 10° SSW 05:43:10 24° SE 05:45:21 16° E
Cosmos 1842 Rocket 3.9 05:41:55 10° SSW 05:46:25 73° W 05:50:53 10° N
Lacrosse 5 1.9 05:41:23 10° SW 05:46:30 61° SE 05:51:34 10° ENE
BREEZE-M DEB (TANK) 4.4 05:32:49 10° WNW 05:46:47 88° NNE 05:50:32 16° ESE
Cosmos 2297 4.4 05:41:42 10° S 05:46:53 32° SE 05:52:01 10° ENE
NOAA 6 4.4 05:42:23 10° SSE 05:47:22 44° E 05:52:15 10° N
Atlas Centaur 2 4.3 05:44:32 10° NW 05:47:39 16° N 05:51:09 10° NNE
Cosmos 1437 Rocket 2.6 05:45:28 10° S 05:49:19 75° E 05:53:07 10° NNE
SJ-7 4.4 05:45:35 10° SSE 05:49:49 82° ENE 05:54:02 10° N
Cosmos 1092 Rocket 4.4 05:44:19 10° NNW 05:50:32 70° W 05:56:54 10° S
Cosmos 1867 4.1 05:47:51 10° SSW 05:52:53 37° SE 05:57:28 12° ENE
Cosmos 2026 Rocket 4.2 05:48:39 10° N 05:55:04 81° W 06:01:32 10° S
Cosmos 2333 Rocket 4.3 05:51:51 10° W 05:56:14 22° SW 06:00:39 10° S
H-2A R/B 4.2 05:54:50 10° S 05:58:28 38° WSW 06:02:00 10° NW
Cosmos 2237 Rocket 2.6 05:53:45 10° NNW 05:59:24 67° WSW 06:05:09 10° SSE
Cosmos 1076 Rocket 3.6 05:55:25 10° N 05:59:43 83° W 06:04:08 10° S
Cosmos 1943 Rocket 2.9 05:55:53 10° S 06:00:56 31° SE 06:04:29 17° ENE
Cosmos 2151 3.0 05:57:03 10° N 06:01:10 54° E 06:05:22 10° SSE
Cosmos 1777 Rocket 4.4 06:00:33 10° SSW 06:05:50 68° WNW 06:11:03 10° N
Cosmos 2292 Rocket 3.9 06:05:55 10° N 06:10:25 78° E 06:16:37 10° S
MOS 1-B Rocket 4.3 06:07:19 10° NE 06:12:38 42° ESE 06:18:31 10° S
Cosmos 990 Rocket 4.4 06:12:32 10° S 06:17:24 38° ESE 06:19:52 24° ENE
Cosmos 468 Rocket 4.5 06:13:01 10° N 06:17:56 39° ENE 06:20:08 27° SE
AQUARIUS 4.1 06:14:29 10° SSE 06:19:03 62° E 06:23:31 10° N
deb Chang Zheng 4 4.0 06:14:59 10° S 06:19:22 66° WSW 06:23:42 10° NNW
Cosmos 2266 Rocket 4.1 06:15:00 10° NNE 06:20:49 50° E 06:26:47 10° SSE
Cosmos 2278 Rocket 3.9 06:19:28 10° SW 06:24:39 36° WNW 06:29:47 10° N
Cosmos 1898 Rocket 4.0 06:20:01 10° S 06:24:52 36° ESE 06:25:40 34° E
Cosmos 2369 Rocket 3.1 06:22:54 10° S 06:27:22 27° SE 06:27:22 27° SE
H-2A R/B 3.6 06:29:50 26° NE 06:29:50 26° NE 06:31:56 10° NNE
SJ 16-02 1.4 06:24:05 10° SSW 06:28:34 82° WNW 06:33:01 10° NNE
PSLV R/B 4.0 06:25:04 10° S 06:28:52 67° WSW 06:32:34 10° NNW
CZ-2C R/B 3.7 06:27:19 10° N 06:32:45 49° W 06:38:13 10° SSW
Cosmos 1151 Rocket 3.9 06:29:08 10° S 06:31:53 32° SSE 06:31:53 32° SSE
S3M 4.0 06:27:27 10° S 06:33:55 81° E 06:40:22 10° N
CZ-4B R/B 3.1 06:31:20 18° SSE 06:35:20 57° ENE 06:40:34 10° N
Meteor 1-26 Rocket 4.3 06:30:34 10° S 06:36:41 72° ESE 06:42:36 10° NNE
Cosmos 1607 3.8 06:31:47 10° SSW 06:37:57 71° SE 06:41:58 23° NE
Cosmos 1933 3.5 06:38:58 10° SSW 06:43:09 76° W 06:47:15 10° N
USA 234 3.3 06:39:55 27° SE 06:43:50 78° SW 06:50:25 10° WNW
Cosmos 1689 Rocket 3.8 06:46:58 10° NNW 06:49:37 33° W 06:52:19 10° SSW
MOS 1-B 4.4 06:43:53 10° SSE 06:49:47 79° WSW 06:55:37 10° NNW
SMAP 3.7 06:45:33 10° S 06:50:12 56° WSW 06:54:47 10° NNW
Cosmos 2315 Rocket 4.0 06:47:23 10° S 06:53:43 62° E 07:00:00 10° NNE
Meteor 2-3 Rocket 3.9 06:48:55 10° NNW 06:54:32 71° WSW 07:00:18 10° S
PAYLOAD B 4.5 06:49:57 10° S 06:55:35 69° WSW 07:01:06 10° NNW
Okean O Rocket 1.5 06:56:06 70° SSE 06:56:36 86° E 07:01:06 10° NNW
Meteor 2-16 Rocket 4.3 06:52:13 10° N 06:58:20 88° E 07:04:32 10° S
SL-8 R/B 4.3 06:53:46 10° WSW 06:58:27 44° S 06:58:40 44° S
CZ-2C R/B 2.8 07:00:04 35° S 07:02:06 80° WSW 07:06:53 10° NNW
ATLAS 3B R/B 4.4 07:06:17 10° W 07:12:34 28° SW 07:17:25 15° SSE
ERS-2 3.8 07:10:45 10° NNW 07:14:05 33° W 07:17:30 10° SSW
SL-16 R/B 3.1 07:10:23 10° NW 07:15:51 47° WSW 07:18:54 25° S
Cosmos 1937 Rocket 4.4 07:12:14 10° SSW 07:15:31 38° S 07:15:31 38° S
Cosmos 1939 Rocket 4.3 07:16:07 27° SSW 07:17:42 37° WSW 07:21:34 10° NW
Okean 3 Rocket 4.3 07:15:45 10° NNW 07:19:57 53° W 07:19:57 53° W
Lacrosse 5 rocket 3.5 07:17:13 10° NNW 07:18:56 21° NNW 07:18:56 21° NNW
ATLAS CENTAUR R/B 2.7 07:18:16 10° SW 07:21:33 37° W 07:21:33 37° W
Cosmos 1766 Rocket 4.4 07:18:22 10° NNW 07:22:45 49° WSW 07:22:54 49° WSW
Cosmos 1763 Rocket 4.2 07:23:39 10° NW 07:28:50 53° WSW 07:29:47 47° SSW
BREEZE-M DEB 3.9 07:23:22 10° W 07:28:25 62° SW 07:28:25 62° SW
Lacrosse 5 3.8 07:24:57 10° WSW 07:29:08 26° WNW 07:31:44 17° NNW
Cosmos 1943 Rocket 3.2 07:39:25 10° SW 07:44:48 43° WNW 07:46:08 37° NW
NOSS 3-1 (C) 4.1 07:50:43 10° NW 07:59:34 83° WSW 07:59:34 83° WSW
Cosmos 2369 Rocket 3.9 08:06:32 10° SW 08:09:11 27° SW 08:09:11 27° SW
